Flight Track Log - Related Links

Times and Time Zones

All times are in EDT time to prevent confusion due to time zone crossing. See the GGN7283 flight status page for this flight to view local times or setup timezone preferences in your user account.

Time Position Orientation Groundspeed Altitude Reporting Facility
EDT Latitude Longitude Course Direction KTS MPH feet Rate Location/Type
Wed 09:27:39 PM 43.6667 -79.5833 90° East 120 138 1,300  Level Toronto Center
Wed 09:28:39 PM 43.6667 -79.5167 97° East 150 173 3,400 1,850 Climbing Toronto Center
Wed 09:29:39 PM 43.6667 -79.4667 90° East 160 184 5,000 750 Climbing Toronto Center
Wed 09:30:39 PM 43.6667 -79.3833 90° East 200 230 4,900 150 Descending Toronto Center
Wed 09:31:39 PM 43.6500 -79.3167 109° East 210 242 5,300 950 Climbing Toronto Center
Wed 09:32:39 PM 43.6167 -79.2333 119° Southeast 200 230 6,800 1,500 Climbing Toronto Center
Wed 09:33:39 PM 43.5833 -79.1667 125° Southeast 200 230 8,300 1,350 Climbing Toronto Center
Wed 09:34:39 PM 43.5500 -79.1333 144° Southeast 210 242 9,500 1,650 Climbing Toronto Center
Wed 09:35:39 PM 43.5167 -79.0500 119° Southeast 210 242 11,600 2,050 Climbing Toronto Center
Wed 09:36:39 PM 43.4833 -79.0167 144° Southeast 190 219 13,600 1,850 Climbing Toronto Center
Wed 09:37:39 PM 43.4500 -78.9500 125° Southeast 190 219 15,300 1,400 Climbing Toronto Center
Wed 09:38:39 PM 43.4333 -78.8500 103° East 230 265 16,400 850 Climbing Toronto Center
Wed 09:39:39 PM 43.4333 -78.7667 90° East 240 276 17,000 300 Climbing Toronto Center
Wed 09:40:39 PM 43.4167 -78.6667 103° East 270 311 17,000 -50 Level Toronto Center
Wed 09:41:39 PM 43.4167 -78.5500 90° East 270 311 16,900  Descending Toronto Center
Wed 09:42:39 PM 43.3833 -78.4333 111° Southeast 270 311 17,000 50 Climbing Toronto Center
Wed 09:43:39 PM 43.3667 -78.3500 105° East 270 311 17,000  Level Toronto Center
Wed 09:44:39 PM 43.3667 -78.2500 90° East 270 311 17,000 -50 Level Toronto Center
Wed 09:45:39 PM 43.3500 -78.1500 103° East 270 311 16,900  Descending Toronto Center
Wed 09:46:39 PM 43.3333 -78.0500 103° East 270 311 17,000  Climbing Toronto Center
Wed 09:47:39 PM 43.3333 -77.9333 90° East 270 311 16,900 50 Descending Toronto Center
Wed 09:48:39 PM 43.3167 -77.8500 105° East 270 311 17,100 66 Climbing Toronto Center
Wed 09:49:10 PM 43.3264 -77.8069 73° East 274 315 17,000 -587 Descending Cleveland Center
Wed 09:50:11 PM 43.3111 -77.6986 101° East 285 328 16,200 -878 Descending Cleveland Center
Wed 09:51:13 PM 43.2972 -77.5839 99° East 301 346 15,200 -927 Descending Cleveland Center
Wed 09:52:14 PM 43.2856 -77.4689 98° East 303 349 14,300 -836 Descending Cleveland Center
Wed 09:53:15 PM 43.2700 -77.3589 101° East 296 341 13,500 -976 Descending Cleveland Center
Wed 09:54:17 PM 43.2575 -77.2519 99° East 289 333 12,300 -1,171 Descending Cleveland Center
Wed 09:55:18 PM 43.2456 -77.1447 99° East 287 330 11,100 -634 Descending Cleveland Center
Wed 09:56:20 PM 43.2333 -77.0389 99° East 273 314 11,000 -49 Descending Cleveland Center
Wed 09:57:21 PM 43.2194 -76.9461 102° East 256 295 11,000 49 Level Cleveland Center
Wed 09:58:23 PM 43.2092 -76.8503 98° East 254 292 11,100 -188 Climbing Cleveland Center
Wed 09:58:57 PM 43.1969 -76.8014 109° East 254 292 10,700 -1,440 Descending Boston Center
Wed 09:59:38 PM 43.1808 -76.7269 107° East 244 281 9,300 -1,700 Descending Boston Center
Wed 09:59:57 PM 43.1767 -76.7147 115° Southeast 246 283 9,000 -1,527 Descending Boston Center
Wed 10:00:33 PM 43.1500 -76.6583 123° Southeast 226 260 7,900 -1,475 Descending Boston Center
Wed 10:00:58 PM 43.1408 -76.6372 121° Southeast 233 268 7,500 -1,475 Descending Boston Center
Wed 10:01:34 PM 43.1175 -76.5864 122° Southeast 217 250 6,400 -1,475 Descending Boston Center
Wed 10:01:59 PM 43.1106 -76.5664 115° Southeast 223 257 6,000 -1,364 Descending Boston Center
Wed 10:02:40 PM 43.0967 -76.4978 105° East 216 249 4,900 -1,180 Descending Boston Center
Wed 10:03:00 PM 43.0953 -76.4883 101° East 218 251 4,800 -1,279 Descending Boston Center
Wed 10:03:41 PM 43.0978 -76.4164 87° East 218 251 3,600 -1,377 Descending Boston Center
Wed 10:04:01 PM 43.1000 -76.4075 71° East 216 249 3,400 -600 Descending Boston Center
Wed 10:04:41 PM 43.1014 -76.3444 88° East 182 209 3,000 -393 Descending Boston Center
Wed 10:05:02 PM 43.1011 -76.3222 91° East 199 229 3,000 -98 Level Boston Center
Wed 10:05:42 PM 43.1039 -76.2811 85° East 171 197 2,900 -590 Descending Boston Center
Wed 10:06:03 PM 43.1047 -76.2603 87° East 182 209 2,400 -984 Descending Boston Center
Wed 10:06:43 PM 43.1050 -76.2231 89° East 153 176 1,900 -885 Descending Boston Center
Wed 10:07:04 PM 43.1056 -76.2019 88° East 166 191 1,500 -818 Descending Boston Center
Wed 10:07:49 PM 43.1078 -76.1567 86° East 144 166 1,000 -600 Descending Boston Center
Wed 10:08:04 PM 43.1072 -76.1472 95° East 155 178 900 -395 Descending Boston Center
Wed 10:09:05 PM 43.1092 -76.0992 87° East 149 171 500 -393 Descending Boston Center

Login

Don't have an account? Register now (free) for customized features, flight alerts, and more!